Location: Cactus School
(34.5700°N, 118.0931°W)
Time: 03:29:04
(UTC-07:00)

Transit 4A - Pass Details

Date: 13 April 2024
Orbit: 871 x 971 km, 66.8° (Epoch: 20 May)

Event Time Altitude Azimuth Distance (km) Brightness Sun altitude
Rises 00:32:53 0° 332° (NNW) 3,463 11.6 -45.9°
Reaches altitude 10° 00:35:21 10° 332° (NNW) 2,524 10.7 -46.0°
Enters shadow 00:35:43 12° 332° (NNW) 2,391 10.5 -46.0°
Maximum altitude 00:41:12 85° 246° (WSW) 886 - -46.1°
Drops below altitude 10° 00:47:05 10° 158° (SSE) 2,548 - -46.1°
Sets 00:49:35 0° 157° (SSE) 3,497 - -46.2°
